Darlington, SC

10:11 AM EDT on April 19, 2018 (GMT -0400)
Darlington County Jetport

Weather History for KUDG - February, 2013

Change the Weather History Date:

Monday, February 25, 2013

  Actual Average (KFLO) Record (KFLO)
Temperature  
Mean Temperature 42 °F -  
Max Temperature 46 °F 60 °F 83 °F (2018)
Min Temperature 39 °F 38 °F 14 °F (1967)
Degree Days  
Heating Degree Days 22    
Moisture  
Dew Point 30 °F    
Average Humidity 59    
Maximum Humidity 87    
Minimum Humidity 49    
Precipitation  
Precipitation 0.00 in - - ()
Sea Level Pressure  
Sea Level Pressure 30.10 in    
Wind  
Wind Speed 9 mph (NE)    
Max Wind Speed 18 mph    
Max Gust Speed 23 mph    
Averages and records for this station are not official NWS values.
T = Trace of Precipitation, MM = Missing Value Source: NWS Daily Summary

Daily Weather History Graph

Daily Weather History Graph

Search for Another Location

Airport or City:

Astronomy

Feb. 25, 2013 Rise Set
Actual Time 6:53 AM EST 6:12 PM EST
Civil Twilight 6:27 AM EST 6:37 PM EST
Nautical Twilight 5:58 AM EST 7:06 PM EST
Astronomical Twilight 5:29 AM EST 7:36 PM EST
Moon 6:21 PM EST (2/25) 6:24 AM EST (2/25)
Length of Visible Light 12h 09m
Length of Day
11h 19m
Full, 100% of the Moon is Illuminated
Feb 25
Full
Feb 25
Full
Mar 4
Last Quarter
Mar 11
New
Mar 19
First Quarter

Hourly Weather History & Observations

Time (EST) Temp. Windchill Dew Point Humidity Pressure Visibility Wind Dir Wind Speed Gust Speed Precip Events Conditions
12:15 AM 42.8 °F - 37.4 °F 81% 30.03 in - Calm Calm - N/A   Clear
12:35 AM 41.0 °F 36.4 °F 37.4 °F 87% 30.03 in - North 6.9 mph - N/A   Unknown
12:55 AM 44.6 °F 40.2 °F 37.4 °F 76% 30.02 in - NNE 8.1 mph - N/A   Clear
1:15 AM 44.6 °F 40.2 °F 37.4 °F 76% 30.03 in - North 8.1 mph - N/A   Clear
1:35 AM 44.6 °F 40.2 °F 35.6 °F 71% 30.02 in - NNE 8.1 mph - N/A   Clear
1:55 AM 44.6 °F 40.7 °F 35.6 °F 71% 30.03 in - NNE 6.9 mph - N/A   Clear
2:15 AM 44.6 °F 39.7 °F 33.8 °F 66% 30.03 in - NNE 9.2 mph - N/A   Clear
2:35 AM 46.4 °F 41.5 °F 32.0 °F 57% 30.03 in - NNE 10.4 mph - N/A   Clear
2:55 AM 46.4 °F 41.5 °F 30.2 °F 53% 30.02 in - NE 10.4 mph - N/A   Clear
3:15 AM 44.6 °F 40.7 °F 30.2 °F 57% 30.03 in - NNE 6.9 mph - N/A   Clear
3:35 AM 44.6 °F 41.4 °F 30.2 °F 57% 30.02 in - NNE 5.8 mph - N/A   Clear
3:55 AM 44.6 °F 41.4 °F 30.2 °F 57% 30.03 in - NNE 5.8 mph - N/A   Clear
4:15 AM 44.6 °F 41.4 °F 30.2 °F 57% 30.04 in - NNE 5.8 mph - N/A   Clear
4:35 AM 44.6 °F 40.7 °F 30.2 °F 57% 30.06 in - NE 6.9 mph - N/A   Clear
4:55 AM 44.6 °F 40.7 °F 28.4 °F 53% 30.05 in - NNE 6.9 mph - N/A   Clear
5:15 AM 42.8 °F 39.3 °F 30.2 °F 61% 30.06 in - NE 5.8 mph - N/A   Clear
5:35 AM 42.8 °F 38.0 °F 28.4 °F 57% 30.06 in - NE 8.1 mph - N/A   Clear
5:55 AM 42.8 °F 37.5 °F 28.4 °F 57% 30.08 in - NE 9.2 mph - N/A   Clear
6:15 AM 42.8 °F 37.0 °F 28.4 °F 57% 30.09 in - NE 10.4 mph - N/A   Clear
6:35 AM 42.8 °F 36.2 °F 30.2 °F 61% 30.09 in - NE 12.7 mph 19.6 mph N/A   Clear
6:55 AM 42.8 °F 35.1 °F 32.0 °F 66% 30.10 in - ENE 16.1 mph 21.9 mph N/A   Clear
7:15 AM 41.0 °F 34.3 °F 32.0 °F 70% 30.11 in - ENE 11.5 mph 18.4 mph N/A   Clear
7:35 AM 41.0 °F 34.3 °F 32.0 °F 70% 30.12 in - ENE 11.5 mph - N/A   Clear
7:55 AM 41.0 °F 34.7 °F 32.0 °F 70% 30.13 in - ENE 10.4 mph - N/A   Clear
8:15 AM 41.0 °F 35.2 °F 32.0 °F 70% 30.15 in - NE 9.2 mph - N/A   Clear
8:35 AM 41.0 °F 32.2 °F 30.2 °F 65% 30.15 in - ENE 18.4 mph 23.0 mph N/A   Clear
8:55 AM 41.0 °F 33.1 °F 28.4 °F 61% 30.16 in - ENE 15.0 mph 23.0 mph N/A   Clear
9:15 AM 39.2 °F 32.5 °F 28.4 °F 65% 30.18 in - ENE 10.4 mph - N/A   Clear
9:35 AM 41.0 °F 34.7 °F 28.4 °F 61% 30.19 in - NE 10.4 mph - N/A   Clear
9:55 AM 41.0 °F 33.5 °F 28.4 °F 61% 30.19 in - NE 13.8 mph - N/A   Clear
10:15 AM 41.0 °F 33.1 °F 28.4 °F 61% 30.19 in - NE 15.0 mph - N/A   Clear
10:35 AM 41.0 °F 34.7 °F 28.4 °F 61% 30.18 in - NE 10.4 mph - N/A   Clear
10:55 AM 42.8 °F 35.4 °F 28.4 °F 57% 30.18 in - NE 15.0 mph 18.4 mph N/A   Clear
11:15 AM 42.8 °F 35.8 °F 28.4 °F 57% 30.18 in - NE 13.8 mph 20.7 mph N/A   Clear
11:35 AM 42.8 °F 36.6 °F 28.4 °F 57% 30.18 in - ENE 11.5 mph - N/A   Clear
11:55 AM 42.8 °F 36.2 °F 28.4 °F 57% 30.16 in - ENE 12.7 mph - N/A   Clear
12:15 PM 42.8 °F 36.2 °F 28.4 °F 57% 30.17 in - NE 12.7 mph - N/A   Clear
12:35 PM 42.8 °F 37.5 °F 28.4 °F 57% 30.16 in - NE 9.2 mph - N/A   Clear
12:55 PM 42.8 °F 37.0 °F 28.4 °F 57% 30.14 in - NE 10.4 mph - N/A   Clear
1:15 PM 42.8 °F 36.2 °F 28.4 °F 57% 30.13 in - NE 12.7 mph - N/A   Clear
1:35 PM 42.8 °F 36.2 °F 28.4 °F 57% 30.12 in - NE 12.7 mph - N/A   Clear
1:55 PM 42.8 °F 36.6 °F 26.6 °F 53% 30.14 in - NE 11.5 mph - N/A   Clear
2:15 PM 44.6 °F 39.7 °F 28.4 °F 53% 30.13 in - NE 9.2 mph - N/A   Clear
2:35 PM 44.6 °F 39.7 °F 28.4 °F 53% 30.14 in - NE 9.2 mph - N/A   Clear
2:55 PM 44.6 °F 39.2 °F 28.4 °F 53% 30.13 in - NE 10.4 mph - N/A   Clear
3:15 PM 44.6 °F 38.8 °F 28.4 °F 53% 30.10 in - ENE 11.5 mph - N/A   Clear
3:35 PM 44.6 °F 39.7 °F 26.6 °F 49% 30.09 in - ENE 9.2 mph - N/A   Clear
3:55 PM 44.6 °F 39.2 °F 26.6 °F 49% 30.10 in - NE 10.4 mph - N/A   Clear
4:15 PM 44.6 °F 39.2 °F 28.4 °F 53% 30.11 in - NE 10.4 mph - N/A   Clear
4:35 PM 42.8 °F 37.0 °F 28.4 °F 57% 30.10 in - NE 10.4 mph 16.1 mph N/A   Clear
4:55 PM 42.8 °F 38.0 °F 28.4 °F 57% 30.10 in - ENE 8.1 mph - N/A   Mostly Cloudy
5:15 PM 42.8 °F 38.0 °F 28.4 °F 57% 30.10 in - NE 8.1 mph - N/A   Overcast
5:35 PM 42.8 °F 38.6 °F 28.4 °F 57% 30.12 in - NNE 6.9 mph - N/A   Overcast
5:55 PM 42.8 °F 37.5 °F 28.4 °F 57% 30.11 in - ENE 9.2 mph - N/A   Overcast
6:15 PM 42.8 °F 37.0 °F 28.4 °F 57% 30.11 in - NE 10.4 mph - N/A   Overcast
6:35 PM 42.8 °F 38.0 °F 28.4 °F 57% 30.12 in - NE 8.1 mph - N/A   Overcast
6:55 PM 42.8 °F 37.5 °F 28.4 °F 57% 30.13 in - NE 9.2 mph - N/A   Overcast
7:15 PM 42.8 °F 37.0 °F 28.4 °F 57% 30.14 in - ENE 10.4 mph - N/A   Overcast
7:35 PM 42.8 °F 37.5 °F 28.4 °F 57% 30.13 in - ENE 9.2 mph - N/A   Overcast
7:55 PM 42.8 °F 38.0 °F 28.4 °F 57% 30.13 in - ENE 8.1 mph - N/A   Overcast
8:15 PM 42.8 °F 38.0 °F 26.6 °F 53% 30.13 in - ENE 8.1 mph - N/A   Overcast
8:35 PM 42.8 °F 37.5 °F 26.6 °F 53% 30.13 in - ENE 9.2 mph - N/A   Overcast
8:55 PM 42.8 °F 37.5 °F 28.4 °F 57% 30.12 in - ENE 9.2 mph - N/A   Overcast
9:15 PM 42.8 °F 37.5 °F 28.4 °F 57% 30.12 in - ENE 9.2 mph - N/A   Overcast
9:35 PM 42.8 °F 36.6 °F 28.4 °F 57% 30.09 in - NE 11.5 mph - N/A   Overcast
9:55 PM 42.8 °F 36.6 °F 28.4 °F 57% 30.09 in - NE 11.5 mph - N/A   Overcast
10:15 PM 42.8 °F 36.6 °F 28.4 °F 57% 30.09 in - ENE 11.5 mph - N/A   Overcast
10:35 PM 42.8 °F 36.6 °F 28.4 °F 57% 30.09 in - ENE 11.5 mph - N/A   Overcast
10:55 PM 42.8 °F 36.6 °F 28.4 °F 57% 30.07 in - ENE 11.5 mph - N/A   Overcast
11:15 PM 42.8 °F 36.6 °F 28.4 °F 57% 30.07 in - ENE 11.5 mph - N/A   Overcast
11:35 PM 42.8 °F 36.6 °F 28.4 °F 57% 30.07 in - ENE 11.5 mph 17.3 mph N/A   Overcast
11:55 PM 42.8 °F 36.2 °F 28.4 °F 57% 30.05 in - ENE 12.7 mph - N/A   Overcast